Minot AFB, ND

4:20 AM CST on November 17, 2019 (GMT -0600)
Minot Air Force Base

Weather History for KMIB - September, 2019

Change the Weather History Date:

Tuesday, September 24, 2019

  Actual Average Record
Temperature  
Mean Temperature 60 °F -  
Max Temperature 66 °F 63 °F 89 °F (1997)
Min Temperature 51 °F 38 °F 30 °F (2000)
Degree Days  
Heating Degree Days 4    
Growing Degree Days 10 (Base 50)    
Moisture  
Dew Point 48 °F    
Average Humidity 67    
Maximum Humidity 86    
Minimum Humidity 41    
Precipitation  
Precipitation 0.00 in - - ()
Sea Level Pressure  
Sea Level Pressure 29.65 in    
Wind  
Wind Speed 10 mph (WNW)    
Max Wind Speed 26 mph    
Max Gust Speed 36 mph    
Visibility 10 miles    
Events      
Averages and records for this station are not official NWS values.
T = Trace of Precipitation, MM = Missing Value Source: NWS Daily Summary

Daily Weather History Graph

Daily Weather History Graph

Search for Another Location

Airport or City:

Astronomy

Sep. 24, 2019 Rise Set
Actual Time 7:34 AM CDT 7:39 PM CDT
Civil Twilight 7:03 AM CDT 8:10 PM CDT
Nautical Twilight 6:26 AM CDT 8:47 PM CDT
Astronomical Twilight 5:48 AM CDT 9:24 PM CDT
Moon 1:52 AM CDT (9/24) 5:53 PM CDT (9/24)
Length of Visible Light 13h 07m
Length of Day
12h 04m
Waning Crescent, 23% of the Moon is Illuminated
Sep 24
Waning Crescent
Sep 28
New
Oct 5
First Quarter
Oct 13
Full
Oct 21
Last Quarter

Hourly Weather History & Observations

Time (CDT) Temp. Dew Point Humidity Pressure Visibility Wind Dir Wind Speed Gust Speed Precip Events Conditions
12:56 AM 60.3 °F 52.3 °F 75% 29.68 in 10.0 mi West 8.1 mph - N/A   Scattered Clouds
1:56 AM 60.3 °F 52.7 °F 76% 29.67 in 10.0 mi West 5.8 mph - N/A   Scattered Clouds
2:56 AM 60.1 °F 52.5 °F 76% 29.65 in 10.0 mi WSW 6.9 mph - N/A   Partly Cloudy
3:56 AM 58.1 °F 52.9 °F 83% 29.64 in 10.0 mi WNW 4.6 mph - N/A   Partly Cloudy
4:56 AM 61.5 °F 52.0 °F 71% 29.64 in 10.0 mi NNW 4.6 mph - 0.00 in   Scattered Clouds
5:56 AM 57.0 °F 52.5 °F 85% 29.64 in 10.0 mi West 3.5 mph - N/A   Scattered Clouds
6:56 AM 56.8 °F 52.7 °F 86% 29.65 in 10.0 mi NNW 9.2 mph - N/A   Mostly Cloudy
7:56 AM 54.9 °F 48.7 °F 80% 29.68 in 10.0 mi NNW 8.1 mph - N/A   Clear
8:56 AM 55.6 °F 50.2 °F 82% 29.67 in 10.0 mi WNW 3.5 mph - N/A   Clear
9:56 AM 61.2 °F 50.2 °F 67% 29.65 in 10.0 mi WSW 5.8 mph - N/A   Clear
10:56 AM 62.6 °F 50.2 °F 64% 29.64 in 10.0 mi SW 6.9 mph - N/A   Scattered Clouds
11:56 AM 65.8 °F 50.2 °F 57% 29.64 in 10.0 mi West 17.3 mph 26.5 mph N/A   Partly Cloudy
12:56 PM 67.3 °F 49.6 °F 53% 29.62 in 10.0 mi West 15.0 mph - N/A   Clear
1:56 PM 68.4 °F 47.8 °F 48% 29.60 in 10.0 mi West 19.6 mph - N/A   Scattered Clouds
2:56 PM 70.2 °F 47.3 °F 44% 29.59 in 10.0 mi West 23.0 mph 29.9 mph N/A   Clear
3:57 PM 67.6 °F 43.2 °F 41% 29.60 in 10.0 mi WNW 26.5 mph 35.7 mph N/A   Clear
4:56 PM 65.3 °F 45.1 °F 48% 29.62 in 10.0 mi WNW 25.3 mph 33.4 mph N/A   Partly Cloudy
5:56 PM 61.3 °F 46.0 °F 57% 29.66 in 10.0 mi WNW 20.7 mph 31.1 mph N/A   Clear
6:17 PM 60.8 °F 46.4 °F 59% 29.66 in 10.0 mi WNW 23.0 mph - N/A   Partly Cloudy
6:56 PM 60.1 °F 43.9 °F 55% 29.66 in 10.0 mi WNW 13.8 mph - 0.00 in   Partly Cloudy
7:56 PM 56.5 °F 46.0 °F 68% 29.68 in 10.0 mi WNW 10.4 mph - N/A   Scattered Clouds
8:56 PM 52.7 °F 46.4 °F 79% 29.67 in 10.0 mi West 8.1 mph - N/A   Partly Cloudy
9:56 PM 51.6 °F 44.6 °F 77% 29.68 in 10.0 mi West 10.4 mph - N/A   Clear
10:56 PM 52.7 °F 43.2 °F 70% 29.69 in 10.0 mi West 12.7 mph - N/A   Mostly Cloudy
11:56 PM 53.2 °F 42.3 °F 66% 29.69 in 10.0 mi West 17.3 mph - N/A   Clear